Time,TemperatureF,DewpointF,PressureIn,WindDirection,WindDirectionDegrees,WindSpeedMPH,WindSpeedGustMPH,Humidity,HourlyPrecipIn,Conditions,Clouds,dailyrainin,SoftwareType,DateUTC
2013-05-13 00:01:00,42.3,31.0,30.11,WNW,288,0.0,0.0,64,0.00,,---,0.00,VWS V14.00,2013-05-13 05:01:00,
2013-05-13 00:06:00,42.2,30.9,30.11,WNW,288,0.0,0.0,64,0.00,,---,0.00,VWS V14.00,2013-05-13 05:06:00,
2013-05-13 00:11:00,42.2,31.7,30.11,WNW,288,0.0,0.0,66,0.00,,---,0.00,VWS V14.00,2013-05-13 05:11:00,
2013-05-13 00:16:00,42.2,31.7,30.11,WNW,288,0.0,0.0,66,0.00,,---,0.00,VWS V14.00,2013-05-13 05:16:00,
2013-05-13 00:21:00,41.9,31.4,30.11,WNW,288,0.0,0.0,66,0.00,,---,0.00,VWS V14.00,2013-05-13 05:21:00,
2013-05-13 00:26:00,41.9,31.4,30.11,WNW,288,0.0,0.0,66,0.00,,---,0.00,VWS V14.00,2013-05-13 05:26:00,
2013-05-13 00:31:00,41.8,31.3,30.11,WNW,288,0.0,0.0,66,0.00,,---,0.00,VWS V14.00,2013-05-13 05:31:00,
2013-05-13 00:37:00,41.8,31.3,30.11,WNW,289,0.0,0.0,66,0.00,,---,0.00,VWS V14.00,2013-05-13 05:37:00,
2013-05-13 00:42:00,41.6,31.1,30.11,WNW,289,0.0,0.0,66,0.00,,---,0.00,VWS V14.00,2013-05-13 05:42:00,
2013-05-13 00:47:00,41.5,31.0,30.11,WNW,289,0.0,0.0,66,0.00,,---,0.00,VWS V14.00,2013-05-13 05:47:00,
2013-05-13 00:52:00,41.5,31.0,30.11,WNW,289,0.0,0.0,66,0.00,,---,0.00,VWS V14.00,2013-05-13 05:52:00,
2013-05-13 00:57:00,41.5,31.4,30.11,WNW,288,0.0,0.0,67,0.00,,---,0.00,VWS V14.00,2013-05-13 05:57:00,
2013-05-13 01:02:00,41.5,31.4,30.11,WNW,288,0.0,0.0,67,0.00,,---,0.00,VWS V14.00,2013-05-13 06:02:00,
2013-05-13 01:07:00,41.3,31.2,30.11,WNW,289,0.0,0.0,67,0.00,,---,0.00,VWS V14.00,2013-05-13 06:07:00,
2013-05-13 01:12:00,41.2,31.1,30.11,WNW,289,0.0,0.0,67,0.00,,---,0.00,VWS V14.00,2013-05-13 06:12:00,
2013-05-13 01:17:00,41.1,31.0,30.11,WNW,288,0.0,0.0,67,0.00,,---,0.00,VWS V14.00,2013-05-13 06:17:00,
2013-05-13 01:22:00,40.9,31.2,30.11,WNW,288,0.0,0.0,68,0.00,,---,0.00,VWS V14.00,2013-05-13 06:22:00,
2013-05-13 01:28:00,40.9,31.2,30.11,WNW,289,0.0,0.0,68,0.00,,---,0.00,VWS V14.00,2013-05-13 06:28:00,
2013-05-13 01:33:00,40.8,31.4,30.11,WNW,288,0.0,0.0,69,0.00,,---,0.00,VWS V14.00,2013-05-13 06:33:00,
2013-05-13 01:38:00,40.8,31.4,30.11,WNW,288,0.0,0.0,69,0.00,,---,0.00,VWS V14.00,2013-05-13 06:38:00,
2013-05-13 01:43:00,40.6,31.2,30.11,WNW,288,0.0,0.0,69,0.00,,---,0.00,VWS V14.00,2013-05-13 06:43:00,
2013-05-13 01:48:00,40.6,31.2,30.11,WNW,289,0.0,0.0,69,0.00,,---,0.00,VWS V14.00,2013-05-13 06:48:00,
2013-05-13 01:53:00,40.6,31.2,30.11,WNW,288,0.0,0.0,69,0.00,,---,0.00,VWS V14.00,2013-05-13 06:53:00,
2013-05-13 01:58:00,40.5,31.5,30.11,WNW,289,0.0,0.0,70,0.00,,---,0.00,VWS V14.00,2013-05-13 06:58:00,
2013-05-13 02:03:00,40.5,31.5,30.11,WNW,288,0.0,0.0,70,0.00,,---,0.00,VWS V14.00,2013-05-13 07:03:00,
2013-05-13 02:09:00,40.5,31.5,30.11,WNW,289,0.0,0.0,70,0.00,,---,0.00,VWS V14.00,2013-05-13 07:09:00,
2013-05-13 02:14:00,40.3,31.3,30.11,WNW,288,0.0,0.0,70,0.00,,---,0.00,VWS V14.00,2013-05-13 07:14:00,
2013-05-13 02:19:00,40.2,31.2,30.10,WNW,288,0.0,0.0,70,0.00,,---,0.00,VWS V14.00,2013-05-13 07:19:00,
2013-05-13 02:24:00,40.2,31.2,30.10,WNW,288,0.0,0.0,70,0.00,,---,0.00,VWS V14.00,2013-05-13 07:24:00,
2013-05-13 02:29:00,40.2,31.2,30.10,WNW,289,0.0,0.0,70,0.00,,---,0.00,VWS V14.00,2013-05-13 07:29:00,
2013-05-13 02:34:00,40.6,31.6,30.10,WNW,289,0.0,0.0,70,0.00,,---,0.00,VWS V14.00,2013-05-13 07:34:00,
2013-05-13 02:39:00,41.2,31.5,30.10,WNW,288,1.0,2.0,68,0.00,,---,0.00,VWS V14.00,2013-05-13 07:39:00,
2013-05-13 02:44:00,41.5,31.7,30.10,WNW,289,0.0,0.0,68,0.00,,---,0.00,VWS V14.00,2013-05-13 07:44:00,
2013-05-13 02:49:00,41.8,31.7,30.10,WNW,289,0.0,0.0,67,0.00,,---,0.00,VWS V14.00,2013-05-13 07:49:00,
2013-05-13 02:54:00,41.8,31.7,30.10,WNW,288,0.0,0.0,67,0.00,,---,0.00,VWS V14.00,2013-05-13 07:54:00,
2013-05-13 03:00:00,41.8,32.0,30.10,WNW,288,0.0,0.0,68,0.00,,---,0.00,VWS V14.00,2013-05-13 08:00:00,
2013-05-13 03:05:00,41.6,31.8,30.11,WNW,288,0.0,0.0,68,0.00,,---,0.00,VWS V14.00,2013-05-13 08:05:00,
2013-05-13 03:10:00,41.6,31.8,30.11,WNW,288,0.0,0.0,68,0.00,,---,0.00,VWS V14.00,2013-05-13 08:10:00,
2013-05-13 03:15:00,41.5,31.7,30.11,WNW,288,0.0,0.0,68,0.00,,---,0.00,VWS V14.00,2013-05-13 08:15:00,
2013-05-13 03:20:00,41.2,31.8,30.11,WNW,288,0.0,0.0,69,0.00,,---,0.00,VWS V14.00,2013-05-13 08:20:00,
2013-05-13 03:25:00,41.1,31.7,30.11,WNW,288,0.0,0.0,69,0.00,,---,0.00,VWS V14.00,2013-05-13 08:25:00,
2013-05-13 03:30:00,41.1,31.7,30.11,WNW,289,0.0,0.0,69,0.00,,---,0.00,VWS V14.00,2013-05-13 08:30:00,
2013-05-13 03:35:00,40.9,31.5,30.11,WNW,289,0.0,0.0,69,0.00,,---,0.00,VWS V14.00,2013-05-13 08:35:00,
2013-05-13 03:40:00,40.8,31.8,30.11,WNW,288,0.0,0.0,70,0.00,,---,0.00,VWS V14.00,2013-05-13 08:40:00,
2013-05-13 03:46:00,40.5,31.9,30.11,WNW,288,0.0,0.0,71,0.00,,---,0.00,VWS V14.00,2013-05-13 08:46:00,
2013-05-13 03:51:00,40.3,31.7,30.11,WNW,289,0.0,0.0,71,0.00,,---,0.00,VWS V14.00,2013-05-13 08:51:00,
2013-05-13 03:56:00,40.2,31.6,30.11,WNW,289,0.0,0.0,71,0.00,,---,0.00,VWS V14.00,2013-05-13 08:56:00,
2013-05-13 04:01:00,40.2,31.9,30.11,WNW,288,0.0,0.0,72,0.00,,---,0.00,VWS V14.00,2013-05-13 09:01:00,
2013-05-13 04:06:00,40.1,31.8,30.10,WNW,288,0.0,0.0,72,0.00,,---,0.00,VWS V14.00,2013-05-13 09:06:00,
2013-05-13 04:11:00,39.9,31.6,30.10,WNW,289,0.0,0.0,72,0.00,,---,0.00,VWS V14.00,2013-05-13 09:11:00,
2013-05-13 04:16:00,39.8,31.9,30.10,WNW,288,0.0,0.0,73,0.00,,---,0.00,VWS V14.00,2013-05-13 09:16:00,
2013-05-13 04:21:00,39.6,31.7,30.10,WNW,289,0.0,0.0,73,0.00,,---,0.00,VWS V14.00,2013-05-13 09:21:00,
2013-05-13 04:26:00,39.5,31.6,30.10,WNW,288,0.0,0.0,73,0.00,,---,0.00,VWS V14.00,2013-05-13 09:26:00,
2013-05-13 04:32:00,39.3,31.7,30.10,WNW,288,0.0,0.0,74,0.00,,---,0.00,VWS V14.00,2013-05-13 09:32:00,
2013-05-13 04:37:00,39.2,31.6,30.10,WNW,288,0.0,0.0,74,0.00,,---,0.00,VWS V14.00,2013-05-13 09:37:00,
2013-05-13 04:42:00,38.9,31.3,30.10,WNW,288,0.0,0.0,74,0.00,,---,0.00,VWS V14.00,2013-05-13 09:42:00,
2013-05-13 04:47:00,38.8,31.6,30.10,WNW,288,0.0,0.0,75,0.00,,---,0.00,VWS V14.00,2013-05-13 09:47:00,
2013-05-13 04:52:00,38.5,31.6,30.10,WNW,288,0.0,0.0,76,0.00,,---,0.00,VWS V14.00,2013-05-13 09:52:00,
2013-05-13 04:57:00,38.3,31.7,30.10,WNW,289,0.0,0.0,77,0.00,,---,0.00,VWS V14.00,2013-05-13 09:57:00,
2013-05-13 05:02:00,38.2,32.0,30.10,WNW,288,0.0,0.0,78,0.00,,---,0.00,VWS V14.00,2013-05-13 10:02:00,
2013-05-13 05:07:00,38.2,32.3,30.10,WNW,288,0.0,0.0,79,0.00,,---,0.00,VWS V14.00,2013-05-13 10:07:00,
2013-05-13 05:12:00,38.3,32.0,30.10,WNW,289,0.0,0.0,78,0.00,,---,0.00,VWS V14.00,2013-05-13 10:12:00,
2013-05-13 05:18:00,38.3,32.0,30.10,WNW,288,0.0,0.0,78,0.00,,---,0.00,VWS V14.00,2013-05-13 10:18:00,
2013-05-13 05:23:00,38.3,32.0,30.10,WNW,288,0.0,0.0,78,0.00,,---,0.00,VWS V14.00,2013-05-13 10:23:00,
2013-05-13 05:28:00,38.3,32.0,30.10,WNW,288,0.0,0.0,78,0.00,,---,0.00,VWS V14.00,2013-05-13 10:28:00,
2013-05-13 05:33:00,38.5,32.2,30.11,WNW,288,0.0,0.0,78,0.00,,---,0.00,VWS V14.00,2013-05-13 10:33:00,
2013-05-13 05:38:00,38.6,32.3,30.11,WNW,288,0.0,0.0,78,0.00,,---,0.00,VWS V14.00,2013-05-13 10:38:00,
2013-05-13 05:43:00,38.8,32.2,30.11,WNW,288,0.0,0.0,77,0.00,,---,0.00,VWS V14.00,2013-05-13 10:43:00,
2013-05-13 05:48:00,38.8,32.2,30.11,WNW,288,0.0,0.0,77,0.00,,---,0.00,VWS V14.00,2013-05-13 10:48:00,
2013-05-13 05:53:00,38.5,32.2,30.11,WNW,288,1.0,2.0,78,0.00,,---,0.00,VWS V14.00,2013-05-13 10:53:00,
2013-05-13 05:58:00,38.5,32.6,30.11,WNW,289,0.0,0.0,79,0.00,,---,0.00,VWS V14.00,2013-05-13 10:58:00,
2013-05-13 06:03:00,38.2,32.3,30.12,WNW,288,0.0,0.0,79,0.00,,---,0.00,VWS V14.00,2013-05-13 11:03:00,
2013-05-13 06:09:00,37.9,32.3,30.12,WNW,288,0.0,0.0,80,0.00,,---,0.00,VWS V14.00,2013-05-13 11:09:00,
2013-05-13 06:14:00,37.6,32.3,30.12,WNW,288,0.0,0.0,81,0.00,,---,0.00,VWS V14.00,2013-05-13 11:14:00,
2013-05-13 06:19:00,37.3,32.0,30.13,WNW,288,2.0,2.0,81,0.00,,---,0.00,VWS V14.00,2013-05-13 11:19:00,
2013-05-13 06:24:00,37.3,32.3,30.13,WNW,288,1.0,2.0,82,0.00,,---,0.00,VWS V14.00,2013-05-13 11:24:00,
2013-05-13 06:29:00,37.2,32.2,30.13,WNW,288,0.0,0.0,82,0.00,,---,0.00,VWS V14.00,2013-05-13 11:29:00,
2013-05-13 06:34:00,37.2,32.5,30.13,WNW,288,0.0,0.0,83,0.00,,---,0.00,VWS V14.00,2013-05-13 11:34:00,
2013-05-13 06:39:00,37.3,33.2,30.13,WNW,288,0.0,1.0,85,0.00,,---,0.00,VWS V14.00,2013-05-13 11:39:00,
2013-05-13 06:44:00,37.8,33.7,30.13,WNW,288,0.0,0.0,85,0.00,,---,0.00,VWS V14.00,2013-05-13 11:44:00,
2013-05-13 06:49:00,38.0,34.2,30.13,WNW,288,0.0,2.0,86,0.00,,---,0.00,VWS V14.00,2013-05-13 11:49:00,
2013-05-13 06:54:00,38.3,34.8,30.13,WNW,288,0.0,0.0,87,0.00,,---,0.00,VWS V14.00,2013-05-13 11:54:00,
2013-05-13 07:00:00,38.8,35.3,30.13,WNW,288,0.0,0.0,87,0.00,,---,0.00,VWS V14.00,2013-05-13 12:00:00,
2013-05-13 07:05:00,39.2,35.7,30.14,WNW,288,0.0,0.0,87,0.00,,---,0.00,VWS V14.00,2013-05-13 12:05:00,
2013-05-13 07:10:00,39.8,36.2,30.14,WNW,289,0.0,0.0,87,0.00,,---,0.00,VWS V14.00,2013-05-13 12:10:00,
2013-05-13 07:15:00,40.5,36.7,30.14,WNW,289,0.0,2.0,86,0.00,,---,0.00,VWS V14.00,2013-05-13 12:15:00,
2013-05-13 07:20:00,41.1,36.6,30.15,WNW,288,4.0,5.0,84,0.00,,---,0.00,VWS V14.00,2013-05-13 12:20:00,
2013-05-13 07:25:00,41.9,36.8,30.15,WNW,288,1.0,3.0,82,0.00,,---,0.00,VWS V14.00,2013-05-13 12:25:00,
2013-05-13 07:30:00,42.5,37.1,30.15,WNW,288,1.0,3.0,81,0.00,,---,0.00,VWS V14.00,2013-05-13 12:30:00,
2013-05-13 07:35:00,43.1,37.4,30.15,WNW,288,4.0,5.0,80,0.00,,---,0.00,VWS V14.00,2013-05-13 12:35:00,
2013-05-13 07:41:00,43.6,37.2,30.15,WNW,288,1.0,3.0,78,0.00,,---,0.00,VWS V14.00,2013-05-13 12:41:00,
2013-05-13 07:46:00,44.2,37.5,30.15,WNW,288,0.0,3.0,77,0.00,,---,0.00,VWS V14.00,2013-05-13 12:46:00,
2013-05-13 07:51:00,44.2,37.1,30.16,WNW,288,4.0,4.0,76,0.00,,---,0.00,VWS V14.00,2013-05-13 12:51:00,
2013-05-13 07:56:00,45.4,38.0,30.16,WNW,288,2.0,4.0,75,0.00,,---,0.00,VWS V14.00,2013-05-13 12:56:00,
2013-05-13 08:01:00,46.0,38.2,30.16,WNW,288,1.0,3.0,74,0.00,,---,0.00,VWS V14.00,2013-05-13 13:01:00,
2013-05-13 08:06:00,46.5,38.3,30.16,WNW,288,3.0,3.0,73,0.00,,---,0.00,VWS V14.00,2013-05-13 13:06:00,
2013-05-13 08:11:00,47.1,37.1,30.16,WNW,288,0.0,3.0,68,0.00,,---,0.00,VWS V14.00,2013-05-13 13:11:00,
2013-05-13 08:16:00,47.7,37.3,30.16,WNW,288,2.0,5.0,67,0.00,,---,0.00,VWS V14.00,2013-05-13 13:16:00,
2013-05-13 08:21:00,48.3,36.7,30.16,WNW,288,3.0,4.0,64,0.00,,---,0.00,VWS V14.00,2013-05-13 13:21:00,
2013-05-13 08:26:00,48.8,37.2,30.16,WNW,288,0.0,0.0,64,0.00,,---,0.00,VWS V14.00,2013-05-13 13:26:00,
2013-05-13 08:32:00,49.5,37.4,30.16,WNW,288,0.0,2.0,63,0.00,,---,0.00,VWS V14.00,2013-05-13 13:32:00,
2013-05-13 08:37:00,50.2,37.3,30.16,WNW,289,0.0,0.0,61,0.00,,---,0.00,VWS V14.00,2013-05-13 13:37:00,
2013-05-13 08:42:00,50.8,37.0,30.16,WNW,289,0.0,0.0,59,0.00,,---,0.00,VWS V14.00,2013-05-13 13:42:00,
2013-05-13 08:47:00,51.4,38.0,30.16,WNW,289,3.0,4.0,60,0.00,,---,0.00,VWS V14.00,2013-05-13 13:47:00,
2013-05-13 08:52:00,52.0,38.1,30.16,WNW,289,0.0,0.0,59,0.00,,---,0.00,VWS V14.00,2013-05-13 13:52:00,
2013-05-13 08:57:00,52.3,37.1,30.16,WNW,288,2.0,2.0,56,0.00,,---,0.00,VWS V14.00,2013-05-13 13:57:00,
2013-05-13 09:02:00,52.8,36.2,30.16,WNW,288,2.0,4.0,53,0.00,,---,0.00,VWS V14.00,2013-05-13 14:02:00,
2013-05-13 09:07:00,53.2,36.0,30.16,WNW,288,0.0,2.0,52,0.00,,---,0.00,VWS V14.00,2013-05-13 14:07:00,
2013-05-13 09:12:00,53.6,35.4,30.16,WNW,288,0.0,0.0,50,0.00,,---,0.00,VWS V14.00,2013-05-13 14:12:00,
2013-05-13 09:18:00,54.2,35.5,30.16,WNW,288,0.0,1.0,49,0.00,,---,0.00,VWS V14.00,2013-05-13 14:18:00,
2013-05-13 09:23:00,54.5,35.8,30.16,WNW,288,0.0,0.0,49,0.00,,---,0.00,VWS V14.00,2013-05-13 14:23:00,
2013-05-13 09:28:00,55.3,36.0,30.16,WNW,288,0.0,0.0,48,0.00,,---,0.00,VWS V14.00,2013-05-13 14:28:00,
2013-05-13 09:33:00,56.0,33.2,30.16,WNW,289,3.0,4.0,42,0.00,,---,0.00,VWS V14.00,2013-05-13 14:33:00,
2013-05-13 09:38:00,56.3,32.9,30.16,WNW,288,2.0,3.0,41,0.00,,---,0.00,VWS V14.00,2013-05-13 14:38:00,
2013-05-13 09:43:00,56.6,33.8,30.16,WNW,289,0.0,0.0,42,0.00,,---,0.00,VWS V14.00,2013-05-13 14:43:00,
2013-05-13 09:48:00,57.0,34.2,30.16,West,277,1.0,9.0,42,0.00,,---,0.00,VWS V14.00,2013-05-13 14:48:00,
2013-05-13 09:53:00,56.9,28.1,30.16,West,277,0.0,0.0,33,0.00,,---,0.00,VWS V14.00,2013-05-13 14:53:00,
2013-05-13 09:59:00,57.2,31.2,30.16,West,277,2.0,2.0,37,0.00,,---,0.00,VWS V14.00,2013-05-13 14:59:00,
2013-05-13 10:04:00,57.6,30.2,30.17,West,277,0.0,3.0,35,0.00,,---,0.00,VWS V14.00,2013-05-13 15:04:00,
2013-05-13 10:09:00,57.8,31.0,30.17,West,277,2.0,3.0,36,0.00,,---,0.00,VWS V14.00,2013-05-13 15:09:00,
2013-05-13 10:14:00,58.1,34.5,30.17,West,277,0.0,2.0,41,0.00,,---,0.00,VWS V14.00,2013-05-13 15:14:00,
2013-05-13 10:19:00,58.3,33.5,30.17,West,277,2.0,5.0,39,0.00,,---,0.00,VWS V14.00,2013-05-13 15:19:00,
2013-05-13 10:24:00,58.4,34.2,30.17,West,277,1.0,1.0,40,0.00,,---,0.00,VWS V14.00,2013-05-13 15:24:00,
2013-05-13 10:30:00,58.9,34.0,30.17,West,277,1.0,3.0,39,0.00,,---,0.00,VWS V14.00,2013-05-13 15:30:00,
2013-05-13 10:35:00,59.2,34.3,30.17,West,277,2.0,2.0,39,0.00,,---,0.00,VWS V14.00,2013-05-13 15:35:00,
2013-05-13 10:40:00,59.2,32.3,30.17,West,277,2.0,3.0,36,0.00,,---,0.00,VWS V14.00,2013-05-13 15:40:00,
2013-05-13 10:45:00,59.0,32.1,30.17,West,277,1.0,2.0,36,0.00,,---,0.00,VWS V14.00,2013-05-13 15:45:00,
2013-05-13 10:50:00,59.3,33.0,30.17,West,277,4.0,6.0,37,0.00,,---,0.00,VWS V14.00,2013-05-13 15:50:00,
2013-05-13 10:55:00,59.3,35.0,30.17,West,275,6.0,6.0,40,0.00,,---,0.00,VWS V14.00,2013-05-13 15:55:00,
2013-05-13 11:00:00,59.3,33.0,30.17,West,268,1.0,3.0,37,0.00,,---,0.00,VWS V14.00,2013-05-13 16:00:00,
2013-05-13 11:05:00,59.5,32.5,30.17,WNW,292,0.0,6.0,36,0.00,,---,0.00,VWS V14.00,2013-05-13 16:05:00,
2013-05-13 11:11:00,59.6,29.0,30.17,SSW,209,0.0,2.0,31,0.00,,---,0.00,VWS V14.00,2013-05-13 16:11:00,
2013-05-13 11:16:00,60.2,32.5,30.17,SSW,209,5.0,5.0,35,0.00,,---,0.00,VWS V14.00,2013-05-13 16:16:00,
2013-05-13 11:21:00,60.5,31.3,30.16,WNW,286,2.0,6.0,33,0.00,,---,0.00,VWS V14.00,2013-05-13 16:21:00,
2013-05-13 11:26:00,60.5,32.7,30.16,WNW,286,3.0,4.0,35,0.00,,---,0.00,VWS V14.00,2013-05-13 16:26:00,
2013-05-13 11:31:00,60.5,32.7,30.16,WNW,286,1.0,1.0,35,0.00,,---,0.00,VWS V14.00,2013-05-13 16:31:00,
2013-05-13 11:36:00,60.9,30.1,30.16,West,279,3.0,3.0,31,0.00,,---,0.00,VWS V14.00,2013-05-13 16:36:00,
2013-05-13 11:41:00,60.9,33.1,30.16,West,279,4.0,7.0,35,0.00,,---,0.00,VWS V14.00,2013-05-13 16:41:00,
2013-05-13 11:46:00,60.9,27.6,30.16,West,281,6.0,10.0,28,0.00,,---,0.00,VWS V14.00,2013-05-13 16:46:00,
2013-05-13 11:51:00,60.9,33.1,30.16,West,277,3.0,3.0,35,0.00,,---,0.00,VWS V14.00,2013-05-13 16:51:00,
2013-05-13 11:56:00,61.6,28.2,30.16,WNW,288,3.0,12.0,28,0.00,,---,0.00,VWS V14.00,2013-05-13 16:56:00,
2013-05-13 12:02:00,61.8,29.2,30.16,West,281,3.0,5.0,29,0.00,,---,0.00,VWS V14.00,2013-05-13 17:02:00,
2013-05-13 12:07:00,61.8,28.4,30.15,West,280,2.0,3.0,28,0.00,,---,0.00,VWS V14.00,2013-05-13 17:07:00,
2013-05-13 12:12:00,61.8,34.6,30.15,West,279,4.0,11.0,36,0.00,,---,0.00,VWS V14.00,2013-05-13 17:12:00,
2013-05-13 12:17:00,62.1,29.5,30.14,WSW,248,11.0,13.0,29,0.00,,---,0.00,VWS V14.00,2013-05-13 17:17:00,
2013-05-13 12:22:00,62.1,31.9,30.14,West,273,2.0,4.0,32,0.00,,---,0.00,VWS V14.00,2013-05-13 17:22:00,
2013-05-13 12:27:00,62.1,32.7,30.14,WNW,283,6.0,6.0,33,0.00,,---,0.00,VWS V14.00,2013-05-13 17:27:00,
2013-05-13 12:32:00,62.4,30.6,30.14,WNW,282,3.0,3.0,30,0.00,,---,0.00,VWS V14.00,2013-05-13 17:32:00,
2013-05-13 12:37:00,63.1,33.6,30.14,WNW,282,4.0,5.0,33,0.00,,---,0.00,VWS V14.00,2013-05-13 17:37:00,
2013-05-13 12:42:00,63.4,32.3,30.14,West,280,7.0,9.0,31,0.00,,---,0.00,VWS V14.00,2013-05-13 17:42:00,
2013-05-13 12:47:00,63.2,29.6,30.13,WNW,290,10.0,16.0,28,0.00,,---,0.00,VWS V14.00,2013-05-13 17:47:00,
2013-05-13 12:53:00,62.9,32.6,30.13,WNW,284,4.0,4.0,32,0.00,,---,0.00,VWS V14.00,2013-05-13 17:53:00,
2013-05-13 12:58:00,62.9,31.0,30.13,WNW,284,2.0,3.0,30,0.00,,---,0.00,VWS V14.00,2013-05-13 17:58:00,
2013-05-13 13:03:00,63.1,31.2,30.13,WNW,284,2.0,4.0,30,0.00,,---,0.00,VWS V14.00,2013-05-13 18:03:00,
2013-05-13 13:08:00,63.5,31.5,30.13,WSW,255,4.0,10.0,30,0.00,,---,0.00,VWS V14.00,2013-05-13 18:08:00,
2013-05-13 13:13:00,64.2,30.4,30.13,West,271,3.0,5.0,28,0.00,,---,0.00,VWS V14.00,2013-05-13 18:13:00,
2013-05-13 13:18:00,64.5,30.7,30.12,West,260,3.0,4.0,28,0.00,,---,0.00,VWS V14.00,2013-05-13 18:18:00,
2013-05-13 13:23:00,64.5,29.8,30.12,WSW,245,10.0,14.0,27,0.00,,---,0.00,VWS V14.00,2013-05-13 18:23:00,
2013-05-13 13:28:00,64.3,29.6,30.12,WNW,296,12.0,12.0,27,0.00,,---,0.00,VWS V14.00,2013-05-13 18:28:00,
2013-05-13 13:33:00,64.0,32.0,30.12,WNW,292,3.0,3.0,30,0.00,,---,0.00,VWS V14.00,2013-05-13 18:33:00,
2013-05-13 13:38:00,64.2,28.6,30.12,WNW,288,3.0,9.0,26,0.00,,---,0.00,VWS V14.00,2013-05-13 18:38:00,
2013-05-13 13:44:00,64.3,31.4,30.12,WNW,290,4.0,8.0,29,0.00,,---,0.00,VWS V14.00,2013-05-13 18:44:00,
2013-05-13 13:49:00,64.3,28.7,30.12,WNW,288,3.0,4.0,26,0.00,,---,0.00,VWS V14.00,2013-05-13 18:49:00,
2013-05-13 13:54:00,64.8,31.0,30.12,WNW,289,5.0,9.0,28,0.00,,---,0.00,VWS V14.00,2013-05-13 18:54:00,
2013-05-13 13:59:00,64.8,31.0,30.12,WNW,289,6.0,6.0,28,0.00,,---,0.00,VWS V14.00,2013-05-13 18:59:00,
2013-05-13 14:04:00,65.2,30.4,30.11,WNW,290,8.0,9.0,27,0.00,,---,0.00,VWS V14.00,2013-05-13 19:04:00,
2013-05-13 14:09:00,65.6,34.2,30.11,West,269,5.0,9.0,31,0.00,,---,0.00,VWS V14.00,2013-05-13 19:09:00,
2013-05-13 14:14:00,66.0,30.2,30.11,WSW,244,3.0,4.0,26,0.00,,---,0.00,VWS V14.00,2013-05-13 19:14:00,
2013-05-13 14:19:00,66.0,31.1,30.10,WNW,287,5.0,11.0,27,0.00,,---,0.00,VWS V14.00,2013-05-13 19:19:00,
2013-05-13 14:24:00,65.3,33.1,30.10,WNW,291,3.0,10.0,30,0.00,,---,0.00,VWS V14.00,2013-05-13 19:24:00,
2013-05-13 14:30:00,65.2,32.2,30.10,West,270,2.0,5.0,29,0.00,,---,0.00,VWS V14.00,2013-05-13 19:30:00,
2013-05-13 14:35:00,65.3,26.6,30.10,SSW,209,0.0,3.0,23,0.00,,---,0.00,VWS V14.00,2013-05-13 19:35:00,
2013-05-13 14:40:00,65.3,27.6,30.10,SW,217,7.0,7.0,24,0.00,,---,0.00,VWS V14.00,2013-05-13 19:40:00,
2013-05-13 14:45:00,66.0,27.2,30.10,WSW,247,1.0,9.0,23,0.00,,---,0.00,VWS V14.00,2013-05-13 19:45:00,
2013-05-13 14:50:00,66.3,32.2,30.10,WSW,252,4.0,10.0,28,0.00,,---,0.00,VWS V14.00,2013-05-13 19:50:00,
2013-05-13 14:55:00,66.6,31.6,30.10,West,261,4.0,9.0,27,0.00,,---,0.00,VWS V14.00,2013-05-13 19:55:00,
2013-05-13 15:00:00,66.6,30.7,30.10,WSW,246,6.0,7.0,26,0.00,,---,0.00,VWS V14.00,2013-05-13 20:00:00,
2013-05-13 15:05:00,66.6,34.2,30.09,WSW,247,4.0,6.0,30,0.00,,---,0.00,VWS V14.00,2013-05-13 20:05:00,
2013-05-13 15:11:00,66.8,32.7,30.09,WSW,247,1.0,6.0,28,0.00,,---,0.00,VWS V14.00,2013-05-13 20:11:00,
2013-05-13 15:16:00,66.8,26.8,30.09,WSW,247,1.0,6.0,22,0.00,,---,0.00,VWS V14.00,2013-05-13 20:16:00,
2013-05-13 15:21:00,66.9,32.8,30.08,West,259,3.0,4.0,28,0.00,,---,0.00,VWS V14.00,2013-05-13 20:21:00,
2013-05-13 15:26:00,66.9,32.8,30.08,West,271,1.0,5.0,28,0.00,,---,0.00,VWS V14.00,2013-05-13 20:26:00,
2013-05-13 15:31:00,67.1,31.1,30.08,West,271,1.0,1.0,26,0.00,,---,0.00,VWS V14.00,2013-05-13 20:31:00,
2013-05-13 15:36:00,67.3,29.3,30.08,West,275,3.0,7.0,24,0.00,,---,0.00,VWS V14.00,2013-05-13 20:36:00,
2013-05-13 15:41:00,67.1,31.1,30.08,WSW,253,6.0,7.0,26,0.00,,---,0.00,VWS V14.00,2013-05-13 20:41:00,
2013-05-13 15:46:00,67.3,31.3,30.08,SW,215,9.0,14.0,26,0.00,,---,0.00,VWS V14.00,2013-05-13 20:46:00,
2013-05-13 15:51:00,67.3,33.1,30.07,WNW,286,5.0,9.0,28,0.00,,---,0.00,VWS V14.00,2013-05-13 20:51:00,
2013-05-13 15:56:00,67.1,32.0,30.07,WNW,287,2.0,2.0,27,0.00,,---,0.00,VWS V14.00,2013-05-13 20:56:00,
2013-05-13 16:02:00,67.1,30.1,30.07,WSW,242,2.0,9.0,25,0.00,,---,0.00,VWS V14.00,2013-05-13 21:02:00,
2013-05-13 16:07:00,67.1,32.9,30.07,West,265,2.0,4.0,28,0.00,,---,0.00,VWS V14.00,2013-05-13 21:07:00,
2013-05-13 16:12:00,66.9,27.9,30.07,WSW,240,7.0,12.0,23,0.00,,---,0.00,VWS V14.00,2013-05-13 21:12:00,
2013-05-13 16:17:00,66.8,32.7,30.07,West,263,5.0,9.0,28,0.00,,---,0.00,VWS V14.00,2013-05-13 21:17:00,
2013-05-13 16:22:00,66.6,35.0,30.07,WNW,285,3.0,6.0,31,0.00,,---,0.00,VWS V14.00,2013-05-13 21:22:00,
2013-05-13 16:27:00,66.8,29.9,30.07,West,268,2.0,5.0,25,0.00,,---,0.00,VWS V14.00,2013-05-13 21:27:00,
2013-05-13 16:32:00,67.1,32.9,30.06,WSW,248,1.0,6.0,28,0.00,,---,0.00,VWS V14.00,2013-05-13 21:32:00,
2013-05-13 16:37:00,67.3,30.3,30.06,WSW,244,4.0,7.0,25,0.00,,---,0.00,VWS V14.00,2013-05-13 21:37:00,
2013-05-13 16:42:00,67.6,31.5,30.06,SW,230,12.0,12.0,26,0.00,,---,0.00,VWS V14.00,2013-05-13 21:42:00,
2013-05-13 16:48:00,67.4,30.4,30.06,WSW,238,4.0,7.0,25,0.00,,---,0.00,VWS V14.00,2013-05-13 21:48:00,
2013-05-13 16:53:00,67.8,30.7,30.06,SW,236,6.0,6.0,25,0.00,,---,0.00,VWS V14.00,2013-05-13 21:53:00,
2013-05-13 16:58:00,67.9,33.6,30.06,WSW,242,10.0,10.0,28,0.00,,---,0.00,VWS V14.00,2013-05-13 21:58:00,
2013-05-13 17:03:00,67.8,31.7,30.06,SW,231,10.0,11.0,26,0.00,,---,0.00,VWS V14.00,2013-05-13 22:03:00,
2013-05-13 17:08:00,67.6,33.4,30.06,WSW,242,7.0,9.0,28,0.00,,---,0.00,VWS V14.00,2013-05-13 22:08:00,
2013-05-13 17:13:00,67.6,32.5,30.06,WSW,242,6.0,7.0,27,0.00,,---,0.00,VWS V14.00,2013-05-13 22:13:00,
2013-05-13 17:18:00,67.6,30.6,30.05,SW,221,5.0,10.0,25,0.00,,---,0.00,VWS V14.00,2013-05-13 22:18:00,
2013-05-13 17:23:00,67.4,30.4,30.05,WSW,239,7.0,10.0,25,0.00,,---,0.00,VWS V14.00,2013-05-13 22:23:00,
2013-05-13 17:28:00,67.4,29.4,30.05,SW,218,7.0,9.0,24,0.00,,---,0.00,VWS V14.00,2013-05-13 22:28:00,
2013-05-13 17:33:00,67.4,28.4,30.04,SW,217,0.0,2.0,23,0.00,,---,0.00,VWS V14.00,2013-05-13 22:33:00,
2013-05-13 17:38:00,67.8,33.5,30.04,WSW,239,3.0,4.0,28,0.00,,---,0.00,VWS V14.00,2013-05-13 22:38:00,
2013-05-13 17:43:00,67.8,34.4,30.04,WSW,239,1.0,1.0,29,0.00,,---,0.00,VWS V14.00,2013-05-13 22:43:00,
2013-05-13 17:48:00,67.4,34.1,30.04,WSW,238,2.0,5.0,29,0.00,,---,0.00,VWS V14.00,2013-05-13 22:48:00,
2013-05-13 17:54:00,67.3,30.3,30.04,SW,233,5.0,10.0,25,0.00,,---,0.00,VWS V14.00,2013-05-13 22:54:00,
2013-05-13 17:59:00,67.1,30.1,30.04,SW,226,9.0,11.0,25,0.00,,---,0.00,VWS V14.00,2013-05-13 22:59:00,
2013-05-13 18:04:00,67.3,30.3,30.04,SW,223,10.0,12.0,25,0.00,,---,0.00,VWS V14.00,2013-05-13 23:04:00,
2013-05-13 18:09:00,67.1,32.0,30.04,SW,234,4.0,10.0,27,0.00,,---,0.00,VWS V14.00,2013-05-13 23:09:00,
2013-05-13 18:14:00,66.8,31.8,30.04,SW,234,2.0,5.0,27,0.00,,---,0.00,VWS V14.00,2013-05-13 23:14:00,
2013-05-13 18:19:00,66.4,33.2,30.03,WSW,240,12.0,12.0,29,0.00,,---,0.00,VWS V14.00,2013-05-13 23:19:00,
2013-05-13 18:24:00,66.6,32.5,30.03,SW,232,6.0,9.0,28,0.00,,---,0.00,VWS V14.00,2013-05-13 23:24:00,
2013-05-13 18:29:00,66.6,32.5,30.03,SW,236,8.0,10.0,28,0.00,,---,0.00,VWS V14.00,2013-05-13 23:29:00,
2013-05-13 18:34:00,66.6,31.6,30.03,WSW,237,7.0,10.0,27,0.00,,---,0.00,VWS V14.00,2013-05-13 23:34:00,
2013-05-13 18:39:00,66.6,32.5,30.03,WSW,237,3.0,7.0,28,0.00,,---,0.00,VWS V14.00,2013-05-13 23:39:00,
2013-05-13 18:44:00,66.4,33.2,30.03,WSW,237,7.0,8.0,29,0.00,,---,0.00,VWS V14.00,2013-05-13 23:44:00,
2013-05-13 18:50:00,66.6,32.5,30.03,WSW,237,7.0,9.0,28,0.00,,---,0.00,VWS V14.00,2013-05-13 23:50:00,
2013-05-13 18:55:00,66.4,32.3,30.03,WSW,238,7.0,10.0,28,0.00,,---,0.00,VWS V14.00,2013-05-13 23:55:00,
2013-05-13 19:00:00,66.4,34.0,30.03,WSW,238,5.0,7.0,30,0.00,,---,0.00,VWS V14.00,2013-05-14 00:00:00,
2013-05-13 19:05:00,66.3,34.8,30.03,SW,234,6.0,10.0,31,0.00,,---,0.00,VWS V14.00,2013-05-14 00:05:00,
2013-05-13 19:10:00,66.0,32.0,30.03,SW,234,6.0,7.0,28,0.00,,---,0.00,VWS V14.00,2013-05-14 00:10:00,
2013-05-13 19:15:00,65.5,36.4,30.03,SW,234,3.0,3.0,34,0.00,,---,0.00,VWS V14.00,2013-05-14 00:15:00,
2013-05-13 19:20:00,64.8,37.2,30.02,SW,234,2.0,4.0,36,0.00,,---,0.00,VWS V14.00,2013-05-14 00:20:00,
2013-05-13 19:26:00,64.0,38.6,30.02,SW,234,3.0,3.0,39,0.00,,---,0.00,VWS V14.00,2013-05-14 00:26:00,
2013-05-13 19:31:00,63.5,38.1,30.02,SW,234,5.0,5.0,39,0.00,,---,0.00,VWS V14.00,2013-05-14 00:31:00,
2013-05-13 19:36:00,63.2,37.9,30.02,SW,234,2.0,4.0,39,0.00,,---,0.00,VWS V14.00,2013-05-14 00:36:00,
2013-05-13 19:41:00,62.9,38.2,30.02,SW,234,2.0,4.0,40,0.00,,---,0.00,VWS V14.00,2013-05-14 00:41:00,
2013-05-13 19:46:00,62.7,39.3,30.02,SW,234,1.0,3.0,42,0.00,,---,0.00,VWS V14.00,2013-05-14 00:46:00,
2013-05-13 19:51:00,62.4,39.6,30.02,SW,234,1.0,4.0,43,0.00,,---,0.00,VWS V14.00,2013-05-14 00:51:00,
2013-05-13 19:56:00,62.3,38.9,30.02,SW,234,3.0,3.0,42,0.00,,---,0.00,VWS V14.00,2013-05-14 00:56:00,
2013-05-13 20:01:00,62.1,39.4,30.02,SW,234,3.0,4.0,43,0.00,,---,0.00,VWS V14.00,2013-05-14 01:01:00,
2013-05-13 20:06:00,62.0,40.4,30.02,SW,234,2.0,4.0,45,0.00,,---,0.00,VWS V14.00,2013-05-14 01:06:00,
2013-05-13 20:11:00,61.6,40.6,30.02,SW,234,3.0,5.0,46,0.00,,---,0.00,VWS V14.00,2013-05-14 01:11:00,
2013-05-13 20:16:00,61.5,40.5,30.02,SW,234,4.0,4.0,46,0.00,,---,0.00,VWS V14.00,2013-05-14 01:16:00,
2013-05-13 20:21:00,61.3,40.4,30.01,SW,234,4.0,5.0,46,0.00,,---,0.00,VWS V14.00,2013-05-14 01:21:00,
2013-05-13 20:27:00,61.3,40.4,30.01,SW,234,5.0,6.0,46,0.00,,---,0.00,VWS V14.00,2013-05-14 01:27:00,
2013-05-13 20:32:00,61.2,40.8,30.01,SW,234,4.0,6.0,47,0.00,,---,0.00,VWS V14.00,2013-05-14 01:32:00,
2013-05-13 20:37:00,60.9,40.0,30.01,SW,233,4.0,5.0,46,0.00,,---,0.00,VWS V14.00,2013-05-14 01:37:00,
2013-05-13 20:42:00,60.7,40.4,30.01,SW,232,4.0,5.0,47,0.00,,---,0.00,VWS V14.00,2013-05-14 01:42:00,
2013-05-13 20:47:00,60.5,40.7,30.01,SW,232,3.0,4.0,48,0.00,,---,0.00,VWS V14.00,2013-05-14 01:47:00,
2013-05-13 20:52:00,60.2,41.0,30.01,SW,232,4.0,5.0,49,0.00,,---,0.00,VWS V14.00,2013-05-14 01:52:00,
2013-05-13 20:57:00,59.9,40.7,30.01,SW,232,4.0,5.0,49,0.00,,---,0.00,VWS V14.00,2013-05-14 01:57:00,
2013-05-13 21:02:00,59.8,40.6,30.01,SW,232,3.0,6.0,49,0.00,,---,0.00,VWS V14.00,2013-05-14 02:02:00,
2013-05-13 21:07:00,59.5,40.3,30.01,SW,232,3.0,5.0,49,0.00,,---,0.00,VWS V14.00,2013-05-14 02:07:00,
2013-05-13 21:12:00,59.0,40.4,30.01,SW,232,3.0,5.0,50,0.00,,---,0.00,VWS V14.00,2013-05-14 02:12:00,
2013-05-13 21:17:00,58.7,40.6,30.01,SW,232,2.0,5.0,51,0.00,,---,0.00,VWS V14.00,2013-05-14 02:17:00,
2013-05-13 21:22:00,58.6,40.5,30.01,SW,232,3.0,4.0,51,0.00,,---,0.00,VWS V14.00,2013-05-14 02:22:00,
2013-05-13 21:27:00,58.4,40.9,30.01,SW,232,2.0,3.0,52,0.00,,---,0.00,VWS V14.00,2013-05-14 02:27:00,
2013-05-13 21:32:00,58.1,41.1,30.01,SW,232,1.0,4.0,53,0.00,,---,0.00,VWS V14.00,2013-05-14 02:32:00,
2013-05-13 21:38:00,57.8,40.8,30.01,SW,232,2.0,5.0,53,0.00,,---,0.00,VWS V14.00,2013-05-14 02:38:00,
2013-05-13 21:43:00,58.0,39.5,30.01,SW,230,3.0,7.0,50,0.00,,---,0.00,VWS V14.00,2013-05-14 02:43:00,
2013-05-13 21:48:00,58.0,40.0,30.01,SW,229,3.0,5.0,51,0.00,,---,0.00,VWS V14.00,2013-05-14 02:48:00,
2013-05-13 21:53:00,57.8,39.8,30.01,SW,228,3.0,5.0,51,0.00,,---,0.00,VWS V14.00,2013-05-14 02:53:00,
2013-05-13 21:58:00,57.5,40.5,30.01,SW,227,5.0,6.0,53,0.00,,---,0.00,VWS V14.00,2013-05-14 02:58:00,
2013-05-13 22:03:00,57.5,40.5,30.01,SW,227,5.0,6.0,53,0.00,,---,0.00,VWS V14.00,2013-05-14 03:03:00,
2013-05-13 22:08:00,57.2,41.2,30.01,SW,227,3.0,5.0,55,0.00,,---,0.00,VWS V14.00,2013-05-14 03:08:00,
2013-05-13 22:13:00,56.7,41.7,30.01,SW,227,3.0,5.0,57,0.00,,---,0.00,VWS V14.00,2013-05-14 03:13:00,
2013-05-13 22:18:00,56.7,42.1,30.01,SW,227,3.0,4.0,58,0.00,,---,0.00,VWS V14.00,2013-05-14 03:18:00,
2013-05-13 22:23:00,56.6,42.5,30.01,SW,227,4.0,4.0,59,0.00,,---,0.00,VWS V14.00,2013-05-14 03:23:00,
2013-05-13 22:29:00,56.7,42.1,30.01,SW,227,2.0,4.0,58,0.00,,---,0.00,VWS V14.00,2013-05-14 03:29:00,
2013-05-13 22:34:00,57.0,41.5,30.01,SW,227,3.0,5.0,56,0.00,,---,0.00,VWS V14.00,2013-05-14 03:34:00,
2013-05-13 22:39:00,57.2,41.7,30.01,SW,227,3.0,5.0,56,0.00,,---,0.00,VWS V14.00,2013-05-14 03:39:00,
2013-05-13 22:44:00,57.2,41.2,30.01,SW,225,3.0,4.0,55,0.00,,---,0.00,VWS V14.00,2013-05-14 03:44:00,
2013-05-13 22:49:00,57.3,41.8,30.01,SW,225,5.0,6.0,56,0.00,,---,0.00,VWS V14.00,2013-05-14 03:49:00,
2013-05-13 22:54:00,57.3,41.8,30.01,SW,225,3.0,5.0,56,0.00,,---,0.00,VWS V14.00,2013-05-14 03:54:00,
2013-05-13 22:59:00,57.0,41.9,30.01,SW,225,2.0,4.0,57,0.00,,---,0.00,VWS V14.00,2013-05-14 03:59:00,
2013-05-13 23:01:00,57.0,41.9,30.01,SW,225,3.0,5.0,57,0.00,,---,0.00,VWS V14.00,2013-05-14 04:01:00,
2013-05-13 23:02:00,56.9,41.8,30.01,SW,225,3.0,3.0,57,0.00,,---,0.00,VWS V14.00,2013-05-14 04:02:00,
2013-05-13 23:07:00,56.6,42.5,30.02,SW,225,3.0,4.0,59,0.00,,---,0.00,VWS V14.00,2013-05-14 04:07:00,
2013-05-13 23:12:00,56.3,42.6,30.02,SW,225,2.0,3.0,60,0.00,,---,0.00,VWS V14.00,2013-05-14 04:12:00,
2013-05-13 23:17:00,56.2,42.5,30.01,SW,225,3.0,4.0,60,0.00,,---,0.00,VWS V14.00,2013-05-14 04:17:00,
2013-05-13 23:22:00,55.9,42.7,30.01,SW,225,3.0,5.0,61,0.00,,---,0.00,VWS V14.00,2013-05-14 04:22:00,
2013-05-13 23:27:00,55.7,42.9,30.01,SW,225,4.0,5.0,62,0.00,,---,0.00,VWS V14.00,2013-05-14 04:27:00,
2013-05-13 23:32:00,55.6,42.8,30.00,SW,224,4.0,5.0,62,0.00,,---,0.00,VWS V14.00,2013-05-14 04:32:00,
2013-05-13 23:37:00,55.4,42.6,30.00,SW,223,4.0,6.0,62,0.00,,---,0.00,VWS V14.00,2013-05-14 04:37:00,
2013-05-13 23:43:00,55.4,43.0,30.00,SW,222,3.0,5.0,63,0.00,,---,0.00,VWS V14.00,2013-05-14 04:43:00,
2013-05-13 23:48:00,55.1,43.2,30.00,SW,222,4.0,4.0,64,0.00,,---,0.00,VWS V14.00,2013-05-14 04:48:00,
2013-05-13 23:53:00,55.0,43.1,30.00,SW,222,4.0,6.0,64,0.00,,---,0.00,VWS V14.00,2013-05-14 04:53:00,
2013-05-13 23:58:00,54.8,42.9,30.00,SW,221,3.0,5.0,64,0.00,,---,0.00,VWS V14.00,2013-05-14 04:58:00,